Weather History for KAFJ - April, 2013

Change the Weather History Date:

Monday, April 1, 2013

  Actual Average (KHLG) Record (KHLG)
Temperature  
Mean Temperature 37 °F 46 °F  
Max Temperature 46 °F 56 °F 76 °F (2014)
Min Temperature 28 °F 37 °F 30 °F (1949)
Degree Days  
Heating Degree Days 28 19  
Month to date heating degree days 19  
Since 1 July heating degree days 4959  
Cooling Degree Days 0    
Month to date cooling degree days  
Year to date cooling degree days  
Moisture  
Dew Point 24 °F    
Average Humidity 57    
Maximum Humidity 87    
Minimum Humidity 29    
Precipitation  
Precipitation 0.00 in 0.11 in - ()
Month to date precipitation 0.11  
Sea Level Pressure  
Sea Level Pressure 29.91 in    
Wind  
Wind Speed 10 mph (West)    
Max Wind Speed 17 mph    
Max Gust Speed 24 mph    
Visibility 10 miles    
Events      
T = Trace of Precipitation, MM = Missing Value Source: NWS Daily Summary

Daily Weather History Graph

Daily Weather History Graph

Search for Another Location

Airport or City:

Trip Planner

Search our weather history database for the weather conditions in past years. The results will help you decide how hot, cold, wet, or windy it might be!

Date:

Astronomy

Apr. 01, 2013 Rise Set
Actual Time 7:04 AM EDT 7:45 PM EDT
Civil Twilight 6:37 AM EDT 8:13 PM EDT
Nautical Twilight 6:04 AM EDT 8:45 PM EDT
Astronomical Twilight 5:31 AM EDT 9:19 PM EDT
Moon 12:52 AM EDT (4/1) 10:49 AM EDT (4/1)
Length of Visible Light 13h 35m
Length of Day
12h 41m
Waning Gibbous, 67% of the Moon is Illuminated
Apr 1
Waning Gibbous
Apr 3
Last Quarter
Apr 10
New
Apr 18
First Quarter
Apr 25
Full

Hourly Weather History & Observations

Time (EDT) Temp. Windchill Dew Point Humidity Pressure Visibility Wind Dir Wind Speed Gust Speed Precip Events Conditions
12:15 AM 44.6 °F 40.7 °F 41.0 °F 87% 29.78 in 10.0 mi SW 6.9 mph - N/A   Clear
12:35 AM 44.6 °F 41.4 °F 41.0 °F 87% 29.78 in 10.0 mi SSW 5.8 mph - N/A   Clear
1:15 AM 44.6 °F 39.7 °F 41.0 °F 87% 29.77 in 10.0 mi SSW 9.2 mph - N/A   Clear
1:35 AM 44.6 °F 39.7 °F 41.0 °F 87% 29.76 in 10.0 mi SSW 9.2 mph - N/A   Mostly Cloudy
1:55 AM 44.6 °F 39.2 °F 41.0 °F 87% 29.76 in 10.0 mi SW 10.4 mph - N/A   Overcast
2:15 AM 44.6 °F 40.7 °F 41.0 °F 87% 29.76 in 10.0 mi SSW 6.9 mph - N/A   Overcast
2:35 AM 44.6 °F 40.2 °F 41.0 °F 87% 29.76 in 10.0 mi SW 8.1 mph - N/A   Overcast
2:55 AM 46.4 °F 41.5 °F 41.0 °F 81% 29.76 in 10.0 mi SW 10.4 mph - N/A   Overcast
3:15 AM 46.4 °F 41.1 °F 41.0 °F 81% 29.75 in 10.0 mi SW 11.5 mph - N/A   Mostly Cloudy
3:35 AM 46.4 °F 41.5 °F 41.0 °F 81% 29.75 in 10.0 mi SW 10.4 mph - N/A   Mostly Cloudy
4:15 AM 46.4 °F 40.7 °F 39.2 °F 76% 29.75 in 10.0 mi SW 12.7 mph 17.3 mph N/A   Mostly Cloudy
4:35 AM 46.4 °F 40.7 °F 39.2 °F 76% 29.75 in 10.0 mi WSW 12.7 mph - N/A   Mostly Cloudy
5:15 AM 44.6 °F 38.8 °F 39.2 °F 81% 29.77 in 10.0 mi WSW 11.5 mph - N/A   Mostly Cloudy
5:35 AM 44.6 °F 38.4 °F 39.2 °F 81% 29.77 in 10.0 mi SW 12.7 mph - N/A   Mostly Cloudy
6:15 AM 44.6 °F 39.2 °F 39.2 °F 81% 29.78 in 10.0 mi WSW 10.4 mph - N/A   Scattered Clouds
6:35 AM 44.6 °F 39.2 °F 37.4 °F 76% 29.79 in 10.0 mi West 10.4 mph 17.3 mph N/A   Overcast
6:55 AM 44.6 °F 39.2 °F 37.4 °F 76% 29.80 in 10.0 mi West 10.4 mph 16.1 mph N/A   Overcast
7:15 AM 42.8 °F 36.6 °F 28.4 °F 57% 29.82 in 10.0 mi West 11.5 mph 23.0 mph N/A   Mostly Cloudy
7:35 AM 41.0 °F 34.7 °F 26.6 °F 57% 29.84 in 10.0 mi West 10.4 mph 18.4 mph N/A   Mostly Cloudy
7:55 AM 39.2 °F 32.5 °F 26.6 °F 61% 29.85 in 10.0 mi WNW 10.4 mph 18.4 mph N/A   Scattered Clouds
8:15 AM 39.2 °F 31.6 °F 26.6 °F 61% 29.86 in 10.0 mi West 12.7 mph 18.4 mph N/A   Mostly Cloudy
8:35 AM 39.2 °F 33.6 °F 26.6 °F 61% 29.87 in 10.0 mi West 8.1 mph 16.1 mph N/A   Overcast
8:55 AM 39.2 °F 31.6 °F 26.6 °F 61% 29.87 in 10.0 mi West 12.7 mph - N/A   Overcast
9:15 AM 39.2 °F 31.2 °F 26.6 °F 61% 29.88 in 10.0 mi WNW 13.8 mph 20.7 mph N/A   Overcast
9:35 AM 39.2 °F 31.6 °F 24.8 °F 56% 29.88 in 10.0 mi West 12.7 mph 19.6 mph N/A   Overcast
9:55 AM 39.2 °F 30.5 °F 26.6 °F 61% 29.89 in 10.0 mi West 16.1 mph 21.9 mph N/A   Mostly Cloudy
10:15 AM 39.2 °F 32.5 °F 26.6 °F 61% 29.90 in 10.0 mi WNW 10.4 mph 19.6 mph N/A   Overcast
10:35 AM 39.2 °F 33.0 °F 26.6 °F 61% 29.91 in 10.0 mi West 9.2 mph 16.1 mph N/A   Overcast
11:15 AM 35.6 °F 28.6 °F 28.4 °F 75% 29.92 in 5.0 mi West 9.2 mph 16.1 mph N/A   Overcast
11:35 AM 35.6 °F 28.6 °F 30.2 °F 81% 29.93 in 4.0 mi West 9.2 mph - N/A   Overcast
12:15 PM 39.2 °F 30.5 °F 32.0 °F 75% 29.94 in 10.0 mi NW 16.1 mph 20.7 mph N/A   Overcast
12:35 PM 35.6 °F 28.6 °F 28.4 °F 75% 29.94 in 10.0 mi NW 9.2 mph - N/A   Overcast
12:55 PM 37.4 °F 30.8 °F 28.4 °F 70% 29.95 in 10.0 mi West 9.2 mph 17.3 mph N/A   Overcast
1:15 PM 37.4 °F 32.1 °F 28.4 °F 70% 29.95 in 10.0 mi WNW 6.9 mph - N/A   Mostly Cloudy
1:35 PM 39.2 °F 33.6 °F 24.8 °F 56% 29.95 in 10.0 mi WNW 8.1 mph - N/A   Mostly Cloudy
1:55 PM 42.8 °F 37.5 °F 21.2 °F 42% 29.94 in 10.0 mi West 9.2 mph 19.6 mph N/A   Mostly Cloudy
2:15 PM 41.0 °F 35.2 °F 17.6 °F 39% 29.94 in 10.0 mi West 9.2 mph 21.9 mph N/A   Overcast
2:35 PM 41.0 °F 34.3 °F 17.6 °F 39% 29.95 in 10.0 mi West 11.5 mph 19.6 mph N/A   Overcast
2:55 PM 42.8 °F 38.0 °F 21.2 °F 42% 29.95 in 10.0 mi West 8.1 mph 19.6 mph N/A   Mostly Cloudy
3:15 PM 44.6 °F 38.4 °F 19.4 °F 37% 29.95 in 10.0 mi WNW 12.7 mph 17.3 mph N/A   Mostly Cloudy
3:35 PM 42.8 °F 35.4 °F 15.8 °F 34% 29.96 in 10.0 mi West 15.0 mph 21.9 mph N/A   Scattered Clouds
3:55 PM 42.8 °F 35.8 °F 15.8 °F 34% 29.95 in 10.0 mi NW 13.8 mph 21.9 mph N/A   Mostly Cloudy
4:15 PM 42.8 °F 35.1 °F 14.0 °F 31% 29.96 in 10.0 mi West 16.1 mph 21.9 mph N/A   Scattered Clouds
4:35 PM 42.8 °F 38.0 °F 12.2 °F 29% 29.96 in 10.0 mi West 8.1 mph 21.9 mph N/A   Scattered Clouds
4:55 PM 42.8 °F 34.8 °F 12.2 °F 29% 29.96 in 10.0 mi West 17.3 mph 24.2 mph N/A   Mostly Cloudy
5:15 PM 41.0 °F 33.5 °F 12.2 °F 31% 29.96 in 10.0 mi WNW 13.8 mph 21.9 mph N/A   Scattered Clouds
5:35 PM 41.0 °F 32.5 °F 10.4 °F 29% 29.97 in 10.0 mi NW 17.3 mph 24.2 mph N/A   Scattered Clouds
5:55 PM 41.0 °F 35.2 °F 12.2 °F 31% 29.98 in 10.0 mi West 9.2 mph 19.6 mph N/A   Scattered Clouds
6:15 PM 41.0 °F 34.7 °F 10.4 °F 29% 29.98 in 10.0 mi WNW 10.4 mph 23.0 mph N/A   Scattered Clouds
6:35 PM 39.2 °F 32.0 °F 10.4 °F 31% 29.98 in 10.0 mi NW 11.5 mph 17.3 mph N/A   Partly Cloudy
6:55 PM 39.2 °F 32.5 °F 10.4 °F 31% 29.99 in 10.0 mi WNW 10.4 mph - N/A   Clear
7:15 PM 37.4 °F 29.8 °F 10.4 °F 33% 29.99 in 10.0 mi WNW 11.5 mph 20.7 mph N/A   Mostly Cloudy
7:35 PM 37.4 °F 31.4 °F 10.4 °F 33% 30.00 in 10.0 mi West 8.1 mph - N/A   Overcast
7:55 PM 37.4 °F 32.1 °F 10.4 °F 33% 30.00 in 10.0 mi West 6.9 mph 17.3 mph N/A   Overcast
8:15 PM 37.4 °F 32.8 °F 12.2 °F 36% 30.01 in 10.0 mi West 5.8 mph - N/A   Overcast
8:35 PM 35.6 °F 30.7 °F 12.2 °F 38% 30.01 in 10.0 mi West 5.8 mph - N/A   Overcast
8:55 PM 35.6 °F 30.7 °F 10.4 °F 35% 30.02 in 10.0 mi West 5.8 mph - N/A   Mostly Cloudy
9:15 PM 35.6 °F 30.7 °F 12.2 °F 38% 30.02 in 10.0 mi West 5.8 mph - N/A   Partly Cloudy
9:55 PM 32.0 °F 27.5 °F 12.2 °F 44% 30.04 in 10.0 mi WSW 4.6 mph - N/A   Clear
10:15 PM 30.2 °F 26.7 °F 14.0 °F 51% 30.04 in 10.0 mi WSW 3.5 mph - N/A   Clear
10:35 PM 30.2 °F 25.4 °F 14.0 °F 51% 30.04 in 10.0 mi WSW 4.6 mph - N/A   Clear
10:55 PM 28.4 °F 24.6 °F 15.8 °F 59% 30.04 in 10.0 mi West 3.5 mph - N/A   Clear
11:15 PM 28.4 °F 23.3 °F 15.8 °F 59% 30.04 in 10.0 mi SW 4.6 mph - N/A   Clear
11:35 PM 28.4 °F 23.3 °F 15.8 °F 59% 30.04 in 10.0 mi WSW 4.6 mph - N/A   Partly Cloudy
11:55 PM 28.4 °F 21.2 °F 15.8 °F 59% 30.05 in 10.0 mi West 6.9 mph - N/A   Clear